(149830) = 1979 OS2 = 2000 DT111 = 2005 NK99

Discovered at Catalina on 2005-07-10 by CSS.

Orbit

Orbit type: Main Belt

Note: WebGL enabled browser required.

epoch2022-01-21.0
epoch JD2459600.5
perihelion date2020-06-19.18986
perihelion JD2459019.68986
argument of perihelion (°)217.80204
ascending node (°)127.52363
inclination (°)10.16509
eccentricity0.1068883
perihelion distance (AU)2.1305949
Tisserand w.r.t. Jupiter3.5
ΔV w.r.t. Earth (km/sec)9.6
semimajor axis (AU)2.3855861
mean anomaly (°)155.36221
mean daily motion (°/day)0.26749230
aphelion distance (AU)2.641
period (years)3.68
P-vector [x]0.95975086
P-vector [y]-0.19476815
P-vector [z]-0.20234537
Q-vector [x]0.24348814
Q-vector [y]0.93609291
Q-vector [z]0.25385742
absolute magnitude16.27
phase slope0.15
uncertainty0
referenceMPO 694317
observations used678
oppositions17
arc length (days)15619
first opposition used1979
last opposition used2022
residual rms (arc-secs)0.82
perturbers coarse indicatorM-v
perturbers precise indicator003Ek
first observation date used1979-07-24.0
last observation date used2022-04-28.0
computer namePan
JD of orbit computation2456731.600182
perihelion JD uncertainty (days)1.3260E-04
argument of perihelion uncertainty (°)4.9933E-05
ascending node uncertainty (°)3.6927E-05
inclination uncertainty (°)7.3530E-06
eccentricity uncertainty 7.4873E-08
perihelion distance uncertainty (AU)1.7295E-07
Minimum Orbit Intersection Distances (in AU)
for orbit epoch: 2459200.5, reference: E2021-B55
Mercury1.73427
Venus1.40345
Earth1.12785
Mars0.7565
Jupiter2.70822
Saturn6.59062
Uranus15.7185
Neptune27.704

Observations

697 total observations over interval: 1979 07 24.30208 – 2022 04 28.198665
These data are available for download (format description).

Date (UT) J2000 RA J2000 Dec Magn Location Ref
1979 07 24.30208 19 57 05.38 -17 48 24.7 19.5   675 – Palomar Mountain MPC 5755
1979 07 24.51944 19 56 53.26 -17 50 14.1   413 – Siding Spring Observatory MPC 5756
1979 07 25.31042 19 56 09.17 -17 57 28.0   675 – Palomar Mountain MPC 5756
1995 12 19.35219 09 17 53.72 +13 46 34.4 19.9 V 691 – Steward Observatory, Kitt Peak-Spacewatch MPS 141106
1995 12 19.37387 09 17 53.52 +13 46 38.7   691 – Steward Observatory, Kitt Peak-Spacewatch MPS 141106
1995 12 19.39546 09 17 53.22 +13 46 42.9   691 – Steward Observatory, Kitt Peak-Spacewatch MPS 141106
2000 02 29.26515 11 09 13.06 +15 18 43.4 19.1   704 – Lincoln Laboratory ETS, New Mexico MPS 12296
2000 02 29.27855 11 09 12.37 +15 18 50.9 19.6   704 – Lincoln Laboratory ETS, New Mexico MPS 12296
2000 02 29.29194 11 09 11.51 +15 18 58.5 19.8   704 – Lincoln Laboratory ETS, New Mexico MPS 12296
2000 02 29.32444 11 09 09.70 +15 19 16.8 19.8   704 – Lincoln Laboratory ETS, New Mexico MPS 12296
2000 03 09.29844 11 01 02.86 +16 36 25.5 19.3   704 – Lincoln Laboratory ETS, New Mexico MPS 12296
2000 03 09.31163 11 01 02.17 +16 36 31.9 19.6   704 – Lincoln Laboratory ETS, New Mexico MPS 12296
2000 03 09.32483 11 01 01.36 +16 36 38.2 19.4   704 – Lincoln Laboratory ETS, New Mexico MPS 12296
2000 03 09.33805 11 01 00.60 +16 36 45.4 19.7   704 – Lincoln Laboratory ETS, New Mexico MPS 12296
2002 12 14.31778 05 58 14.35 +12 08 41.4 18.9   704 – Lincoln Laboratory ETS, New Mexico MPS 141106
2002 12 14.33317 05 58 13.31 +12 08 43.2 19.6   704 – Lincoln Laboratory ETS, New Mexico MPS 141106
2002 12 14.34870 05 58 12.31 +12 08 45.9 19.2   704 – Lincoln Laboratory ETS, New Mexico MPS 141106
2002 12 14.36409 05 58 11.30 +12 08 50.2 19.2   704 – Lincoln Laboratory ETS, New Mexico MPS 141106
2004 03 23.34602 13 26 27.49 +06 39 03.5 20.0   704 – Lincoln Laboratory ETS, New Mexico MPS 141106
2004 03 23.35688 13 26 27.03 +06 39 08.1 20.1   704 – Lincoln Laboratory ETS, New Mexico MPS 141106
2004 03 23.36800 13 26 26.54 +06 39 14.6 20.1   704 – Lincoln Laboratory ETS, New Mexico MPS 141106
2004 03 23.37972 13 26 25.98 +06 39 21.0 20.0   704 – Lincoln Laboratory ETS, New Mexico MPS 141106
2004 03 23.39069 13 26 25.42 +06 39 25.9 20.2   704 – Lincoln Laboratory ETS, New Mexico MPS 141106
2005 07 10.43012 23 01 23.41 -09 56 26.9 19.2 V 703 – Catalina Sky Survey MPS 138524
2005 07 10.43741 23 01 23.55 -09 56 29.7 19.1 V 703 – Catalina Sky Survey MPS 138524
2005 07 10.44476 23 01 23.70 -09 56 31.2 19.0 V 703 – Catalina Sky Survey MPS 138524
2005 07 10.45206 23 01 23.95 -09 56 33.3 18.9 V 703 – Catalina Sky Survey MPS 138524
2005 07 11.37230 23 01 45.91 -10 00 52.3 19.9 V 703 – Catalina Sky Survey MPS 138524
2005 07 11.38056 23 01 46.12 -10 00 55.0 20.0 V 703 – Catalina Sky Survey MPS 138524
2005 07 11.38880 23 01 46.34 -10 00 58.0 19.9 V 703 – Catalina Sky Survey MPS 138524
2005 07 11.39704 23 01 46.56 -10 00 59.5 19.7 V 703 – Catalina Sky Survey MPS 138524
2005 07 28.37272 23 04 11.84 -11 57 12.8 18.7   644 – Palomar Mountain/NEAT MPS 139373
2005 07 28.37542 23 04 11.81 -11 57 14.5 18.9   644 – Palomar Mountain/NEAT MPS 139373
2005 07 28.39417 23 04 11.65 -11 57 24.5 18.9   644 – Palomar Mountain/NEAT MPS 139373
2005 07 28.39670 23 04 11.64 -11 57 25.7 18.8   644 – Palomar Mountain/NEAT MPS 139373
2005 07 28.41614 23 04 11.46 -11 57 35.9 19.0   644 – Palomar Mountain/NEAT MPS 139373
2005 07 28.41902 23 04 11.44 -11 57 37.5 18.8   644 – Palomar Mountain/NEAT MPS 139373
2005 08 30.29387 22 47 04.74 -17 53 42.5 17.8 R 699 – Lowell Observatory-LONEOS MPS 141106
2005 08 30.31204 22 47 03.84 -17 53 53.6   699 – Lowell Observatory-LONEOS MPS 141106
2005 08 30.33025 22 47 02.86 -17 54 05.6   699 – Lowell Observatory-LONEOS MPS 141106
2005 08 30.34849 22 47 01.94 -17 54 16.6   699 – Lowell Observatory-LONEOS MPS 141106
2005 08 31.30571 22 46 16.48 -18 04 35.0 17.9 R 644 – Palomar Mountain/NEAT MPS 141106
2005 08 31.32719 22 46 15.39 -18 04 48.6 17.9 R 644 – Palomar Mountain/NEAT MPS 141106
2005 08 31.34789 22 46 14.34 -18 05 01.9 17.8 R 644 – Palomar Mountain/NEAT MPS 141106
2006 12 15.40710 08 55 17.36 +14 05 24.8 20.1 V G96 – Mt. Lemmon Survey MPS 192224
2006 12 15.41403 08 55 17.25 +14 05 26.0 19.9 V G96 – Mt. Lemmon Survey MPS 192224
2006 12 15.42096 08 55 17.18 +14 05 27.8 20.1 V G96 – Mt. Lemmon Survey MPS 192224
2006 12 15.42769 08 55 17.07 +14 05 29.0 20.1 V G96 – Mt. Lemmon Survey MPS 192224
2007 01 09.42488 08 41 18.09 +16 19 42.7 19.4 V G96 – Mt. Lemmon Survey MPS 195528
2007 01 09.42984 08 41 17.84 +16 19 44.5 19.5 V G96 – Mt. Lemmon Survey MPS 195528
2007 01 09.43478 08 41 17.59 +16 19 46.9 19.6 V G96 – Mt. Lemmon Survey MPS 195528
2007 01 09.43977 08 41 17.30 +16 19 49.0 19.9 V G96 – Mt. Lemmon Survey MPS 195528
2007 01 15.25698 08 35 58.42 +17 01 58.7 19.3 R 699 – Lowell Observatory-LONEOS MPS 196364
2007 01 15.28260 08 35 56.99 +17 02 09.8   699 – Lowell Observatory-LONEOS MPS 196364
2007 01 15.30821 08 35 55.33 +17 02 22.3   699 – Lowell Observatory-LONEOS MPS 196364
2007 01 15.33380 08 35 53.82 +17 02 34.1   699 – Lowell Observatory-LONEOS MPS 196364
2007 01 17.35462 08 33 56.07 +17 17 43.4 19.3 R 644 – Palomar Mountain/NEAT MPS 197056
2007 01 17.37508 08 33 54.84 +17 17 52.5 19.6 R 644 – Palomar Mountain/NEAT MPS 197056
2007 01 17.39560 08 33 53.60 +17 18 02.1 19.7 R 644 – Palomar Mountain/NEAT MPS 197056
2007 01 19.32591 08 31 58.82 +17 32 39.1 19.1 R 699 – Lowell Observatory-LONEOS MPS 196364
2007 01 19.34785 08 31 57.35 +17 32 51.7   699 – Lowell Observatory-LONEOS MPS 196364
2007 01 19.36979 08 31 56.12 +17 32 59.1   699 – Lowell Observatory-LONEOS MPS 196364
2007 01 19.39173 08 31 54.84 +17 33 08.5   699 – Lowell Observatory-LONEOS MPS 196364
2007 01 24.30347 08 26 55.93 +18 10 38.7 19.4 V G96 – Mt. Lemmon Survey MPS 197056
2007 01 24.31147 08 26 55.42 +18 10 42.3 19.4 V G96 – Mt. Lemmon Survey MPS 197056
2007 01 24.31941 08 26 54.92 +18 10 46.2 19.4 V G96 – Mt. Lemmon Survey MPS 197056
2007 01 24.32735 08 26 54.42 +18 10 49.6 19.4 V G96 – Mt. Lemmon Survey MPS 197056
2007 01 24.32840 08 26 54.24 +18 10 44.9 18.3 V 703 – Catalina Sky Survey MPS 197056
2007 01 24.33431 08 26 53.98 +18 10 53.7 19.4 V 703 – Catalina Sky Survey MPS 197056
2007 01 24.34022 08 26 53.66 +18 10 57.2 18.6 V 703 – Catalina Sky Survey MPS 197056
2007 01 24.34613 08 26 53.12 +18 11 01.8 18.7 V 703 – Catalina Sky Survey MPS 197056
2007 02 06.21589 08 14 06.41 +19 45 40.0   691 – Steward Observatory, Kitt Peak-Spacewatch MPS 199383
2007 02 06.23254 08 14 05.47 +19 45 47.0   691 – Steward Observatory, Kitt Peak-Spacewatch MPS 199383
2007 02 06.24912 08 14 04.51 +19 45 53.8   691 – Steward Observatory, Kitt Peak-Spacewatch MPS 199383
2007 02 06.26904 08 14 03.37 +19 46 01.7 19.7 V G96 – Mt. Lemmon Survey MPS 199383
2007 02 06.27852 08 14 02.79 +19 46 05.7 19.7 V G96 – Mt. Lemmon Survey MPS 199383
2007 02 06.28811 08 14 02.25 +19 46 09.7 19.8 V G96 – Mt. Lemmon Survey MPS 199383
2007 02 06.29759 08 14 01.71 +19 46 13.6 19.8 V G96 – Mt. Lemmon Survey MPS 199383
2007 02 07.18316 08 13 12.86 +19 52 18.7 19.7 V 703 – Catalina Sky Survey MPS 199383
2007 02 07.18970 08 13 12.54 +19 52 21.0 19.9 V 703 – Catalina Sky Survey MPS 199383
2007 02 07.19622 08 13 12.18 +19 52 24.3 20.1 V 703 – Catalina Sky Survey MPS 199383
2007 02 07.20274 08 13 11.85 +19 52 27.4 19.5 V 703 – Catalina Sky Survey MPS 199383
2007 02 13.19851 08 08 01.82 +20 31 37.5 20.0 V G96 – Mt. Lemmon Survey MPS 200230
2007 02 13.20670 08 08 01.39 +20 31 40.8 19.9 V G96 – Mt. Lemmon Survey MPS 200230
2007 02 13.21501 08 08 00.96 +20 31 43.8 19.8 V G96 – Mt. Lemmon Survey MPS 200230
2007 02 13.22312 08 08 00.56 +20 31 47.1 20.1 V G96 – Mt. Lemmon Survey MPS 200230
2007 02 13.25352 08 07 59.14 +20 31 58.3 19.6   704 – Lincoln Laboratory ETS, New Mexico MPS 200230
2007 02 13.26467 08 07 58.57 +20 32 03.1 20.2   704 – Lincoln Laboratory ETS, New Mexico MPS 200230
2007 02 13.27581 08 07 58.09 +20 32 06.3 19.9   704 – Lincoln Laboratory ETS, New Mexico MPS 200230
2007 02 13.28724 08 07 57.50 +20 32 10.8 20.0   704 – Lincoln Laboratory ETS, New Mexico MPS 200230
2007 02 21.26727 08 02 20.07 +21 17 49.6 20.2 V G96 – Mt. Lemmon Survey MPS 201393
